Weather in Zelenyy Bor

Russia / Krasnoyarsk Krai     53°37′13″N   91°37′29″E
temp.,
°C
wind,
m/s
gust,
m/s
humid.,
%
clouds,
%
prec.,
mm/h
press.,
hPa
HPBL,
m
24 june, thu
thu2401:00+9s228774 0.0 101337
04:00+8s22890 0.0 101212
07:00+11ese23830 0.0 1010226
10:00+16e467020 0.0 1006789
13:00+19e345576 0.0 10031095
16:00+19wsw4562100 0.1 1004473
19:00+17w3475100 0.1 1003170
22:00+14wsw51079100 0.3 1006299
25 june, fri
fri2501:00+12wsw1183100 0.3 100513
04:00+11s1284100 0.0 100519
07:00+11sw3688100 0.1 1006268
10:00+12wsw5991100 3.3 1008616
13:00+14sw4770100 3.7 1008898
16:00+16wsw5760100 0.0 10081447
19:00+14sw4975100 0.1 1009297
22:00+12sw71478100 0.0 1011519
26 june, sat
sat2601:00+10sw5128236 0.0 1013369
04:00+9sw51186100 0.1 1014266
07:00+11sw59797 0.1 1014362
10:00+15wsw556359 0.0 10141062
13:00+17wsw3452100 0.0 10131418
16:00+19sw1247100 0.0 10121728
19:00+18se126087 0.0 1012706
22:00+12ene22815 0.1 101311
27 june, sun
sun2701:00+11ese1188100 0.6 101410
04:00+10ssw1190100 0.0 101510
07:00+12wsw128291 0.1 1016145
10:00+17wsw23615 0.0 1015709
13:00+20wsw244710 0.0 10131979
16:00+21s234081 0.0 10122331
19:00+17n476999 0.0 1013386
22:00+13ne1180100 0.0 101410
28 june, mon
mon2801:00+12sw228462 0.0 101511
04:00+10ssw228634 0.0 101521
07:00+12wsw35763 0.0 1015238
10:00+16w226516 0.0 1014715
13:00+20n12535 0.0 10131472
16:00+21nnw124788 0.0 10121968
19:00+19ene33645 0.1 1012545
22:00+14e228333 0.3 101411